| time (UTC) | temp F | wind direction | speed MPH | gust MPH | rain 1hr in | rain 24hr in | rain mn in | humidity % | barometer mb |
| 20260509161516 | 71 | 303 | 0.0 | 0.0 | 0.00 | 0.05 | 0.05 | 67 | 1011.3 |
| 20260509161011 | 70 | 313 | 0.0 | 1.0 | 0.00 | 0.05 | 0.05 | 70 | 1011.3 |
| 20260509160507 | 70 | 353 | 2.0 | 3.0 | 0.00 | 0.05 | 0.05 | 71 | 1011.3 |
| 20260509160003 | 70 | 259 | 1.0 | 3.0 | 0.00 | 0.05 | 0.05 | 72 | 1011.3 |
| 20260509155459 | 69 | 216 | 3.0 | 4.0 | 0.00 | 0.05 | 0.05 | 71 | 1011.0 |
| 20260509154955 | 69 | 300 | 0.0 | 1.0 | 0.00 | 0.05 | 0.05 | 71 | 1011.3 |
| 20260509154451 | 69 | 268 | 2.0 | 3.0 | 0.00 | 0.05 | 0.05 | 70 | 1011.3 |
| 20260509153949 | 69 | 274 | 1.0 | 3.0 | 0.00 | 0.05 | 0.05 | 74 | 1011.3 |
| 20260509153446 | 69 | 323 | 3.0 | 4.0 | 0.00 | 0.05 | 0.05 | 74 | 1011.0 |
| 20260509152943 | 68 | 299 | 0.0 | 0.0 | 0.00 | 0.05 | 0.05 | 73 | 1011.3 |
| 20260509152438 | 68 | 293 | 0.0 | 1.0 | 0.00 | 0.05 | 0.05 | 74 | 1011.0 |
| 20260509151936 | 68 | 294 | 3.0 | 4.0 | 0.00 | 0.05 | 0.05 | 74 | 1011.3 |
| 20260509151432 | 69 | 324 | 1.0 | 1.0 | 0.00 | 0.05 | 0.05 | 74 | 1011.0 |
| 20260509150930 | 67 | 214 | 3.0 | 4.0 | 0.00 | 0.05 | 0.05 | 77 | 1011.0 |
| 20260509150427 | 67 | 274 | 0.0 | 1.0 | 0.00 | 0.05 | 0.05 | 77 | 1011.0 |
| 20260509145925 | 68 | 333 | 2.0 | 3.0 | 0.00 | 0.05 | 0.05 | 77 | 1011.0 |
| 20260509145425 | 68 | 283 | 1.0 | 1.0 | 0.00 | 0.05 | 0.05 | 74 | 1011.0 |
| 20260509144921 | 67 | 296 | 0.0 | 1.0 | 0.00 | 0.05 | 0.05 | 76 | 1011.0 |
| 20260509144418 | 66 | 296 | 0.0 | 0.0 | 0.00 | 0.05 | 0.05 | 80 | 1011.0 |
| 20260509143915 | 65 | 307 | 0.0 | 0.0 | 0.00 | 0.05 | 0.05 | 82 | 1010.7 |
| 20260509143412 | 66 | 280 | 3.0 | 4.0 | 0.00 | 0.05 | 0.05 | 81 | 1010.7 |
| 20260509142909 | 65 | 310 | 3.0 | 3.0 | 0.00 | 0.05 | 0.05 | 81 | 1010.7 |
| 20260509142405 | 65 | 277 | 3.0 | 3.0 | 0.00 | 0.05 | 0.05 | 81 | 1010.7 |
| 20260509141901 | 64 | 308 | 0.0 | 0.0 | 0.00 | 0.05 | 0.05 | 83 | 1010.7 |
| 20260509141358 | 64 | 215 | 2.0 | 3.0 | 0.00 | 0.05 | 0.05 | 82 | 1010.7 |
| 20260509140854 | 64 | 312 | 2.0 | 3.0 | 0.00 | 0.05 | 0.05 | 83 | 1010.7 |
| 20260509140351 | 63 | 247 | 1.0 | 1.0 | 0.00 | 0.05 | 0.05 | 84 | 1010.7 |
| 20260509135849 | 62 | 330 | 0.0 | 1.0 | 0.00 | 0.05 | 0.05 | 86 | 1010.7 |
| 20260509135347 | 63 | 307 | 1.0 | 1.0 | 0.00 | 0.05 | 0.05 | 85 | 1010.7 |
| 20260509134844 | 62 | 316 | 0.0 | 0.0 | 0.00 | 0.05 | 0.05 | 86 | 1010.7 |
| 20260509134341 | 62 | 300 | 1.0 | 1.0 | 0.00 | 0.05 | 0.05 | 86 | 1010.7 |
| 20260509133837 | 62 | 220 | 4.0 | 5.0 | 0.00 | 0.05 | 0.05 | 85 | 1010.7 |
| 20260509133335 | 62 | 318 | 0.0 | 1.0 | 0.00 | 0.05 | 0.05 | 86 | 1010.7 |
| 20260509132834 | 62 | 301 | 1.0 | 1.0 | 0.00 | 0.05 | 0.05 | 86 | 1010.7 |
| 20260509132331 | 62 | 287 | 0.0 | 1.0 | 0.00 | 0.05 | 0.05 | 87 | 1010.3 |
| 20260509131828 | 62 | 310 | 0.0 | 1.0 | 0.00 | 0.05 | 0.05 | 88 | 1010.7 |
| 20260509131325 | 61 | 293 | 1.0 | 1.0 | 0.00 | 0.05 | 0.05 | 88 | 1010.7 |
| 20260509130821 | 61 | 293 | 0.0 | 0.0 | 0.00 | 0.05 | 0.05 | 89 | 1010.7 |
| 20260509130317 | 60 | 284 | 1.0 | 1.0 | 0.00 | 0.05 | 0.05 | 90 | 1010.7 |
| 20260509125814 | 60 | 294 | 0.0 | 1.0 | 0.00 | 0.05 | 0.05 | 91 | 1010.7 |
| 20260509125310 | 60 | 282 | 1.0 | 1.0 | 0.00 | 0.05 | 0.05 | 93 | 1010.7 |
| 20260509124807 | 59 | 289 | 1.0 | 1.0 | 0.00 | 0.05 | 0.05 | 94 | 1010.7 |
| 20260509124303 | 58 | 264 | 1.0 | 1.0 | 0.00 | 0.05 | 0.05 | 95 | 1010.7 |
| 20260509123802 | 58 | 271 | 0.0 | 1.0 | 0.00 | 0.05 | 0.05 | 97 | 1010.3 |
| 20260509123259 | 58 | 283 | 0.0 | 0.0 | 0.00 | 0.05 | 0.05 | 97 | 1010.3 |
| 20260509122754 | 57 | 308 | 0.0 | 0.0 | 0.00 | 0.05 | 0.05 | 98 | 1010.3 |
| 20260509122251 | 57 | 310 | 0.0 | 0.0 | 0.00 | 0.05 | 0.05 | 98 | 1010.3 |
| 20260509121748 | 57 | 321 | 0.0 | 0.0 | 0.00 | 0.05 | 0.05 | 98 | 1010.0 |
| 20260509121245 | 57 | 325 | 0.0 | 0.0 | 0.00 | 0.05 | 0.05 | 98 | 1010.3 |
| 20260509120744 | 56 | 322 | 0.0 | 0.0 | 0.00 | 0.05 | 0.05 | 98 | 1009.7 |
| 20260509120241 | 56 | 322 | 0.0 | 0.0 | 0.00 | 0.05 | 0.05 | 98 | 1009.7 |
| 20260509115739 | 56 | 322 | 0.0 | 0.0 | 0.00 | 0.05 | 0.05 | 98 | 1009.7 |
| 20260509115235 | 56 | 322 | 0.0 | 0.0 | 0.00 | 0.05 | 0.05 | 98 | 1009.7 |
| 20260509114734 | 55 | 322 | 0.0 | 0.0 | 0.00 | 0.05 | 0.05 | 98 | 1009.7 |
| 20260509114232 | 55 | 321 | 0.0 | 0.0 | 0.00 | 0.05 | 0.05 | 97 | 1009.3 |
| 20260509113731 | 55 | 322 | 0.0 | 0.0 | 0.00 | 0.05 | 0.05 | 97 | 1009.7 |
| 20260509113227 | 55 | 322 | 0.0 | 0.0 | 0.00 | 0.05 | 0.05 | 97 | 1009.7 |
| 20260509112724 | 55 | 322 | 0.0 | 0.0 | 0.00 | 0.05 | 0.05 | 97 | 1009.7 |
| 20260509112221 | 54 | 322 | 0.0 | 0.0 | 0.00 | 0.05 | 0.05 | 97 | 1009.3 |
| 20260509111718 | 54 | 322 | 0.0 | 0.0 | 0.00 | 0.05 | 0.05 | 97 | 1009.3 |
| 20260509111215 | 54 | 322 | 0.0 | 0.0 | 0.00 | 0.05 | 0.05 | 97 | 1009.3 |
| 20260509110713 | 54 | 322 | 0.0 | 0.0 | 0.00 | 0.05 | 0.05 | 97 | 1009.0 |
| 20260509110209 | 54 | 322 | 0.0 | 0.0 | 0.00 | 0.05 | 0.05 | 96 | 1009.0 |
| 20260509105707 | 54 | 317 | 0.0 | 0.0 | 0.00 | 0.05 | 0.05 | 96 | 1009.0 |
| 20260509105204 | 55 | 317 | 0.0 | 0.0 | 0.00 | 0.05 | 0.05 | 96 | 1009.0 |
| 20260509104701 | 55 | 317 | 0.0 | 0.0 | 0.00 | 0.05 | 0.05 | 96 | 1008.6 |
| 20260509104158 | 55 | 308 | 0.0 | 0.0 | 0.00 | 0.05 | 0.05 | 96 | 1008.6 |
| 20260509103656 | 55 | 311 | 0.0 | 0.0 | 0.00 | 0.05 | 0.05 | 96 | 1008.6 |
| 20260509103153 | 56 | 312 | 0.0 | 0.0 | 0.00 | 0.05 | 0.05 | 96 | 1008.6 |
| 20260509102652 | 56 | 313 | 0.0 | 0.0 | 0.00 | 0.05 | 0.05 | 96 | 1008.6 |
| 20260509102148 | 56 | 313 | 0.0 | 0.0 | 0.00 | 0.05 | 0.05 | 96 | 1008.6 |
| 20260509101644 | 56 | 323 | 0.0 | 0.0 | 0.00 | 0.05 | 0.05 | 96 | 1008.6 |
| 20260509101141 | 56 | 323 | 0.0 | 0.0 | 0.00 | 0.05 | 0.05 | 95 | 1009.0 |
| 20260509100638 | 56 | 319 | 0.0 | 0.0 | 0.00 | 0.05 | 0.05 | 95 | 1008.6 |
| 20260509100135 | 57 | 323 | 0.0 | 0.0 | 0.00 | 0.05 | 0.05 | 95 | 1009.0 |
| 20260509095632 | 56 | 308 | 0.0 | 0.0 | 0.00 | 0.05 | 0.05 | 95 | 1008.6 |
| 20260509095130 | 56 | 288 | 0.0 | 0.0 | 0.00 | 0.05 | 0.05 | 95 | 1008.6 |
| 20260509094626 | 56 | 332 | 0.0 | 0.0 | 0.00 | 0.05 | 0.05 | 95 | 1008.6 |
| 20260509094123 | 56 | 343 | 0.0 | 0.0 | 0.00 | 0.05 | 0.05 | 95 | 1009.0 |
| 20260509093622 | 56 | 317 | 0.0 | 0.0 | 0.00 | 0.05 | 0.05 | 94 | 1009.0 |
| 20260509093118 | 56 | 317 | 0.0 | 0.0 | 0.00 | 0.05 | 0.05 | 94 | 1009.0 |
| 20260509092616 | 56 | 301 | 0.0 | 0.0 | 0.00 | 0.05 | 0.05 | 94 | 1009.0 |
| 20260509092114 | 57 | 320 | 0.0 | 0.0 | 0.00 | 0.05 | 0.05 | 94 | 1009.3 |
| 20260509091612 | 57 | 309 | 0.0 | 0.0 | 0.00 | 0.05 | 0.05 | 93 | 1009.3 |
| 20260509091108 | 57 | 315 | 0.0 | 0.0 | 0.00 | 0.05 | 0.05 | 93 | 1009.3 |
| 20260509090606 | 57 | 302 | 0.0 | 0.0 | 0.00 | 0.05 | 0.05 | 93 | 1009.3 |
| 20260509085600 | 57 | 318 | 0.0 | 0.0 | 0.05 | 0.05 | 0.05 | 92 | 1009.3 |
| 20260509085056 | 57 | 314 | 0.0 | 1.0 | 0.07 | 0.04 | 0.04 | 90 | 1009.3 |
| 20260509084553 | 58 | 303 | 0.0 | 0.0 | 0.07 | 0.04 | 0.04 | 90 | 1009.0 |
| 20260509084050 | 58 | 284 | 2.0 | 3.0 | 0.12 | 0.03 | 0.03 | 88 | 1009.3 |
| 20260509083548 | 58 | 312 | 1.0 | 3.0 | 0.17 | 0.03 | 0.03 | 87 | 1009.3 |
| 20260509083044 | 59 | 261 | 0.0 | 1.0 | 0.05 | 0.01 | 0.01 | 83 | 1009.3 |
| 20260509082542 | 60 | 315 | 0.0 | 0.0 | 0.00 | 0.00 | 0.00 | 80 | 1009.3 |
| 20260509082039 | 60 | 262 | 2.0 | 3.0 | 0.00 | 0.00 | 0.00 | 77 | 1009.3 |
| 20260509081536 | 60 | 311 | 0.0 | 0.0 | 0.00 | 0.00 | 0.00 | 78 | 1009.0 |
| 20260509081032 | 60 | 316 | 0.0 | 0.0 | 0.00 | 0.00 | 0.00 | 78 | 1009.3 |
| 20260509080531 | 60 | 320 | 0.0 | 0.0 | 0.00 | 0.00 | 0.00 | 76 | 1009.3 |
| 20260509080029 | 60 | 297 | 0.0 | 0.0 | 0.00 | 0.00 | 0.00 | 76 | 1009.7 |
| 20260509075525 | 60 | 290 | 0.0 | 1.0 | 0.00 | 0.00 | 0.00 | 76 | 1009.3 |
| 20260509075024 | 60 | 299 | 0.0 | 0.0 | 0.00 | 0.00 | 0.00 | 76 | 1009.3 |
| 20260509074520 | 60 | 287 | 0.0 | 1.0 | 0.00 | 0.00 | 0.00 | 76 | 1009.3 |
| 20260509074017 | 60 | 285 | 0.0 | 0.0 | 0.00 | 0.00 | 0.00 | 76 | 1009.3 |
| 20260509073513 | 60 | 305 | 0.0 | 0.0 | 0.00 | 0.00 | 0.00 | 75 | 1009.0 |
| 20260509073010 | 60 | 306 | 0.0 | 0.0 | 0.00 | 0.00 | 0.00 | 75 | 1009.7 |
| 20260509072507 | 60 | 294 | 0.0 | 0.0 | 0.00 | 0.00 | 0.00 | 74 | 1009.3 |
| 20260509072003 | 61 | 291 | 0.0 | 0.0 | 0.00 | 0.00 | 0.00 | 74 | 1009.3 |
| 20260509071500 | 61 | 303 | 0.0 | 0.0 | 0.00 | 0.00 | 0.00 | 73 | 1009.7 |
| 20260509070958 | 61 | 230 | 2.0 | 3.0 | 0.00 | 0.00 | 0.00 | 73 | 1009.7 |
| 20260509070454 | 60 | 291 | 0.0 | 0.0 | 0.00 | 0.00 | 0.00 | 73 | 1009.7 |
| 20260509065950 | 60 | 306 | 0.0 | 0.0 | 0.00 | 0.00 | 0.00 | 73 | 1009.3 |
| 20260509065446 | 61 | 290 | 0.0 | 0.0 | 0.00 | 0.00 | 0.00 | 73 | 1009.7 |
| 20260509064942 | 61 | 287 | 0.0 | 0.0 | 0.00 | 0.00 | 0.00 | 72 | 1009.3 |
| 20260509064440 | 61 | 291 | 3.0 | 4.0 | 0.00 | 0.00 | 0.00 | 71 | 1009.7 |
| 20260509063938 | 61 | 288 | 1.0 | 1.0 | 0.00 | 0.00 | 0.00 | 71 | 1009.3 |
| 20260509063433 | 61 | 282 | 1.0 | 1.0 | 0.00 | 0.00 | 0.00 | 71 | 1009.3 |
| 20260509062930 | 61 | 302 | 0.0 | 0.0 | 0.00 | 0.00 | 0.00 | 70 | 1009.7 |
| 20260509062428 | 61 | 322 | 0.0 | 0.0 | 0.00 | 0.00 | 0.00 | 70 | 1009.7 |
| 20260509061925 | 61 | 305 | 0.0 | 0.0 | 0.00 | 0.00 | 0.00 | 70 | 1009.7 |
| 20260509061422 | 61 | 211 | 2.0 | 4.0 | 0.00 | 0.00 | 0.00 | 70 | 1009.7 |
| 20260509060919 | 62 | 223 | 2.0 | 4.0 | 0.00 | 0.00 | 0.00 | 69 | 1009.7 |
| 20260509060417 | 61 | 268 | 2.0 | 3.0 | 0.00 | 0.00 | 0.00 | 69 | 1009.7 |
| 20260509055911 | 61 | 264 | 1.0 | 1.0 | 0.00 | 0.00 | 0.00 | 69 | 1009.7 |
| 20260509055407 | 61 | 293 | 0.0 | 0.0 | 0.00 | 0.00 | 0.00 | 69 | 1009.7 |
| 20260509054904 | 61 | 290 | 0.0 | 0.0 | 0.00 | 0.00 | 0.00 | 69 | 1009.7 |
| 20260509054401 | 61 | 308 | 0.0 | 0.0 | 0.00 | 0.00 | 0.00 | 70 | 1009.7 |
| 20260509053859 | 60 | 306 | 0.0 | 0.0 | 0.00 | 0.00 | 0.00 | 70 | 1009.7 |
| 20260509053356 | 59 | 259 | 2.0 | 3.0 | 0.00 | 0.00 | 0.00 | 72 | 1009.7 |
| 20260509052855 | 59 | 334 | 0.0 | 0.0 | 0.00 | 0.00 | 0.00 | 74 | 1009.7 |
| 20260509052351 | 58 | 280 | 2.0 | 3.0 | 0.00 | 0.00 | 0.00 | 76 | 1010.0 |
| 20260509051849 | 58 | 338 | 0.0 | 0.0 | 0.00 | 0.00 | 0.00 | 77 | 1009.7 |
| 20260509051347 | 58 | 338 | 0.0 | 0.0 | 0.00 | 0.00 | 0.00 | 78 | 1010.0 |
| 20260509050843 | 58 | 339 | 0.0 | 0.0 | 0.00 | 0.00 | 0.00 | 78 | 1009.7 |
| 20260509050340 | 57 | 338 | 0.0 | 0.0 | 0.00 | 0.00 | 0.00 | 79 | 1010.0 |
| 20260509045837 | 57 | 338 | 0.0 | 0.0 | 0.00 | 0.00 | 0.00 | 79 | 1009.7 |
| 20260509045334 | 57 | 337 | 0.0 | 0.0 | 0.00 | 0.00 | 0.00 | 79 | 1010.0 |
| 20260509044831 | 57 | 340 | 0.0 | 0.0 | 0.00 | 0.00 | 0.00 | 79 | 1010.0 |
| 20260509044329 | 57 | 331 | 0.0 | 0.0 | 0.00 | 0.00 | 0.00 | 80 | 1010.0 |
| 20260509043825 | 57 | 331 | 0.0 | 0.0 | 0.00 | 0.00 | 0.00 | 79 | 1010.0 |
| 20260509043321 | 57 | 331 | 0.0 | 0.0 | 0.00 | 0.00 | 0.00 | 79 | 1009.7 |
| 20260509042817 | 57 | 331 | 0.0 | 0.0 | 0.00 | 0.00 | 0.00 | 79 | 1010.0 |
| 20260509042314 | 57 | 331 | 0.0 | 0.0 | 0.00 | 0.00 | 0.00 | 80 | 1009.7 |
| 20260509041810 | 56 | 331 | 0.0 | 0.0 | 0.00 | 0.00 | 0.00 | 79 | 1010.0 |
| 20260509041308 | 57 | 331 | 0.0 | 0.0 | 0.00 | 0.00 | 0.00 | 80 | 1010.0 |
| 20260509040806 | 57 | 331 | 0.0 | 0.0 | 0.00 | 0.00 | 0.00 | 80 | 1010.0 |
| 20260509040303 | 57 | 331 | 0.0 | 0.0 | 0.00 | 0.00 | 0.00 | 80 | 1010.0 |
| 20260509035800 | 57 | 331 | 0.0 | 0.0 | 0.00 | 0.00 | 0.00 | 80 | 1010.0 |
| 20260509035257 | 57 | 331 | 0.0 | 0.0 | 0.00 | 0.00 | 0.00 | 80 | 1010.0 |
| 20260509034753 | 57 | 331 | 0.0 | 0.0 | 0.00 | 0.00 | 0.00 | 80 | 1010.0 |
| 20260509034251 | 57 | 331 | 0.0 | 0.0 | 0.00 | 0.00 | 0.00 | 79 | 1010.0 |
| 20260509033748 | 57 | 331 | 0.0 | 0.0 | 0.00 | 0.00 | 0.00 | 79 | 1010.0 |
| 20260509033245 | 57 | 331 | 0.0 | 0.0 | 0.00 | 0.00 | 0.00 | 78 | 1010.3 |
| 20260509032742 | 57 | 331 | 0.0 | 0.0 | 0.00 | 0.00 | 0.00 | 78 | 1010.3 |
| 20260509032239 | 57 | 331 | 0.0 | 0.0 | 0.00 | 0.00 | 0.00 | 78 | 1010.7 |
| 20260509031736 | 57 | 331 | 0.0 | 0.0 | 0.00 | 0.00 | 0.00 | 78 | 1010.7 |
| 20260509031234 | 57 | 331 | 0.0 | 0.0 | 0.00 | 0.00 | 0.00 | 77 | 1010.3 |
| 20260509030732 | 58 | 331 | 0.0 | 0.0 | 0.00 | 0.00 | 0.00 | 76 | 1010.3 |
| 20260509030229 | 58 | 331 | 0.0 | 0.0 | 0.00 | 0.00 | 0.00 | 75 | 1010.3 |
| 20260509025726 | 59 | 331 | 0.0 | 0.0 | 0.00 | 0.00 | 0.00 | 75 | 1010.3 |
| 20260509025221 | 59 | 331 | 0.0 | 0.0 | 0.00 | 0.00 | 0.00 | 74 | 1010.0 |
| 20260509024717 | 59 | 330 | 0.0 | 0.0 | 0.00 | 0.00 | 0.00 | 75 | 1010.0 |
| 20260509024212 | 59 | 329 | 0.0 | 0.0 | 0.00 | 0.00 | 0.00 | 73 | 1010.3 |
| 20260509023710 | 60 | 329 | 0.0 | 0.0 | 0.00 | 0.00 | 0.00 | 72 | 1010.3 |
| 20260509023207 | 60 | 296 | 0.0 | 0.0 | 0.00 | 0.00 | 0.00 | 71 | 1010.3 |
| 20260509022703 | 60 | 290 | 0.0 | 1.0 | 0.00 | 0.00 | 0.00 | 71 | 1010.0 |
| 20260509022201 | 61 | 290 | 0.0 | 0.0 | 0.00 | 0.00 | 0.00 | 70 | 1010.0 |
| 20260509021658 | 61 | 290 | 0.0 | 0.0 | 0.00 | 0.00 | 0.00 | 69 | 1010.0 |
| 20260509021155 | 62 | 290 | 0.0 | 0.0 | 0.00 | 0.00 | 0.00 | 67 | 1010.0 |
| 20260509020653 | 62 | 290 | 0.0 | 0.0 | 0.00 | 0.00 | 0.00 | 68 | 1010.0 |
| 20260509020150 | 62 | 290 | 0.0 | 0.0 | 0.00 | 0.00 | 0.00 | 67 | 1010.3 |
| 20260509015649 | 62 | 290 | 0.0 | 0.0 | 0.00 | 0.00 | 0.00 | 67 | 1010.3 |
| 20260509015146 | 62 | 290 | 0.0 | 0.0 | 0.00 | 0.00 | 0.00 | 67 | 1010.3 |
| 20260509014642 | 63 | 290 | 0.0 | 0.0 | 0.00 | 0.00 | 0.00 | 65 | 1010.3 |
| 20260509014139 | 63 | 290 | 0.0 | 0.0 | 0.00 | 0.00 | 0.00 | 65 | 1010.3 |
| 20260509013636 | 63 | 290 | 0.0 | 0.0 | 0.00 | 0.00 | 0.00 | 65 | 1010.3 |
| 20260509013131 | 62 | 290 | 0.0 | 0.0 | 0.00 | 0.00 | 0.00 | 65 | 1010.3 |
| 20260509012628 | 62 | 290 | 0.0 | 0.0 | 0.00 | 0.00 | 0.00 | 66 | 1010.3 |
| 20260509012125 | 62 | 290 | 0.0 | 0.0 | 0.00 | 0.00 | 0.00 | 64 | 1010.0 |
| 20260509011623 | 62 | 290 | 0.0 | 0.0 | 0.00 | 0.00 | 0.00 | 62 | 1010.3 |
| 20260509011120 | 63 | 290 | 0.0 | 0.0 | 0.00 | 0.00 | 0.00 | 63 | 1010.3 |
| 20260509010618 | 63 | 290 | 0.0 | 0.0 | 0.00 | 0.00 | 0.00 | 63 | 1010.3 |
| 20260509010114 | 63 | 290 | 0.0 | 0.0 | 0.00 | 0.00 | 0.00 | 62 | 1010.3 |
| 20260509005612 | 64 | 290 | 0.0 | 0.0 | 0.00 | 0.00 | 0.00 | 61 | 1010.3 |
| 20260509005108 | 65 | 290 | 0.0 | 0.0 | 0.00 | 0.00 | 0.00 | 61 | 1010.3 |
| 20260509004604 | 66 | 290 | 0.0 | 0.0 | 0.00 | 0.00 | 0.00 | 56 | 1010.3 |
| 20260509004101 | 66 | 290 | 0.0 | 0.0 | 0.00 | 0.00 | 0.00 | 56 | 1010.3 |
| 20260509003559 | 67 | 290 | 0.0 | 0.0 | 0.00 | 0.00 | 0.00 | 55 | 1010.7 |
| 20260509003056 | 68 | 290 | 0.0 | 0.0 | 0.00 | 0.00 | 0.00 | 53 | 1010.3 |
| 20260509002554 | 69 | 290 | 0.0 | 0.0 | 0.00 | 0.00 | 0.00 | 51 | 1010.7 |
| 20260509002051 | 70 | 290 | 0.0 | 0.0 | 0.00 | 0.00 | 0.00 | 49 | 1010.7 |
| 20260509001548 | 71 | 290 | 0.0 | 0.0 | 0.00 | 0.00 | 0.00 | 47 | 1010.7 |
| 20260509001044 | 71 | 289 | 0.0 | 0.0 | 0.00 | 0.00 | 0.00 | 46 | 1010.7 |
| 20260509000543 | 71 | 292 | 0.0 | 1.0 | 0.00 | 0.00 | 0.00 | 46 | 1010.7 |
| 20260509000038 | 71 | 292 | 0.0 | 0.0 | 0.00 | 0.00 | 0.00 | 45 | 1010.7 |
| 20260508235537 | 72 | 218 | 1.0 | 4.0 | 0.00 | 0.00 | 0.00 | 44 | 1010.7 |
| 20260508235032 | 71 | 298 | 0.0 | 0.0 | 0.00 | 0.00 | 0.00 | 45 | 1010.3 |
| 20260508234530 | 72 | 287 | 0.0 | 0.0 | 0.00 | 0.00 | 0.00 | 44 | 1010.7 |
| 20260508234027 | 72 | 279 | 1.0 | 3.0 | 0.00 | 0.00 | 0.00 | 44 | 1010.7 |
| 20260508233526 | 71 | 293 | 0.0 | 0.0 | 0.00 | 0.00 | 0.00 | 44 | 1010.7 |
| 20260508233023 | 71 | 294 | 0.0 | 0.0 | 0.00 | 0.00 | 0.00 | 43 | 1010.7 |
| 20260508232520 | 72 | 220 | 3.0 | 4.0 | 0.00 | 0.00 | 0.00 | 42 | 1010.3 |
| 20260508232017 | 72 | 259 | 1.0 | 1.0 | 0.00 | 0.00 | 0.00 | 43 | 1010.7 |
| 20260508231514 | 73 | 272 | 1.0 | 1.0 | 0.00 | 0.00 | 0.00 | 41 | 1010.7 |
| 20260508231011 | 73 | 215 | 4.0 | 5.0 | 0.00 | 0.00 | 0.00 | 41 | 1010.7 |
| 20260508230508 | 74 | 232 | 6.0 | 7.0 | 0.00 | 0.00 | 0.00 | 39 | 1011.0 |
| 20260508230005 | 74 | 332 | 0.0 | 0.0 | 0.00 | 0.00 | 0.00 | 41 | 1010.7 |
| 20260508225502 | 74 | 264 | 1.0 | 1.0 | 0.00 | 0.00 | 0.00 | 40 | 1010.7 |
| 20260508224959 | 74 | 285 | 1.0 | 1.0 | 0.00 | 0.00 | 0.00 | 40 | 1011.0 |
| 20260508224456 | 75 | 236 | 6.0 | 7.0 | 0.00 | 0.00 | 0.00 | 38 | 1011.0 |
| 20260508223953 | 75 | 302 | 1.0 | 1.0 | 0.00 | 0.00 | 0.00 | 41 | 1011.0 |
| 20260508223451 | 74 | 18 | 0.0 | 1.0 | 0.00 | 0.00 | 0.00 | 41 | 1010.7 |
| 20260508222948 | 75 | 275 | 2.0 | 3.0 | 0.00 | 0.00 | 0.00 | 39 | 1011.0 |
| 20260508222446 | 74 | 70 | 2.0 | 3.0 | 0.00 | 0.00 | 0.00 | 41 | 1011.3 |
| 20260508221942 | 74 | 267 | 2.0 | 3.0 | 0.00 | 0.00 | 0.00 | 40 | 1011.0 |
| 20260508221438 | 74 | 237 | 4.0 | 5.0 | 0.00 | 0.00 | 0.00 | 39 | 1011.3 |
| 20260508220934 | 74 | 225 | 3.0 | 3.0 | 0.00 | 0.00 | 0.00 | 39 | 1011.3 |
| 20260508220431 | 75 | 260 | 4.0 | 5.0 | 0.00 | 0.00 | 0.00 | 40 | 1011.0 |
| 20260508215927 | 74 | 245 | 1.0 | 1.0 | 0.00 | 0.00 | 0.00 | 40 | 1011.0 |
| 20260508215425 | 74 | 260 | 2.0 | 4.0 | 0.00 | 0.00 | 0.00 | 39 | 1011.0 |
| 20260508214921 | 74 | 246 | 4.0 | 5.0 | 0.00 | 0.00 | 0.00 | 39 | 1011.0 |
| 20260508214419 | 75 | 279 | 2.0 | 3.0 | 0.00 | 0.00 | 0.00 | 40 | 1011.0 |
| 20260508213914 | 75 | 258 | 2.0 | 3.0 | 0.00 | 0.00 | 0.00 | 40 | 1011.0 |
| 20260508213412 | 75 | 269 | 1.0 | 1.0 | 0.00 | 0.00 | 0.00 | 42 | 1011.0 |
| 20260508212908 | 75 | 264 | 3.0 | 3.0 | 0.00 | 0.00 | 0.00 | 40 | 1010.7 |
| 20260508212404 | 75 | 267 | 1.0 | 3.0 | 0.00 | 0.00 | 0.00 | 39 | 1011.0 |
| 20260508211901 | 75 | 189 | 4.0 | 5.0 | 0.00 | 0.00 | 0.00 | 39 | 1011.0 |
| 20260508211356 | 75 | 266 | 3.0 | 5.0 | 0.00 | 0.00 | 0.00 | 39 | 1011.3 |
| 20260508210854 | 76 | 283 | 0.0 | 1.0 | 0.00 | 0.00 | 0.00 | 38 | 1011.3 |
| 20260508210350 | 77 | 304 | 0.0 | 0.0 | 0.00 | 0.00 | 0.00 | 41 | 1011.0 |
| 20260508205847 | 75 | 301 | 0.0 | 0.0 | 0.00 | 0.00 | 0.00 | 41 | 1011.3 |
| 20260508205343 | 76 | 250 | 2.0 | 3.0 | 0.00 | 0.00 | 0.00 | 39 | 1011.3 |
| 20260508204839 | 75 | 249 | 3.0 | 4.0 | 0.00 | 0.00 | 0.00 | 39 | 1011.3 |
| 20260508204337 | 75 | 255 | 2.0 | 4.0 | 0.00 | 0.00 | 0.00 | 39 | 1011.7 |
| 20260508203832 | 74 | 207 | 2.0 | 4.0 | 0.00 | 0.00 | 0.00 | 41 | 1011.7 |
| 20260508203329 | 74 | 220 | 2.0 | 3.0 | 0.00 | 0.00 | 0.00 | 41 | 1011.3 |
| 20260508202824 | 74 | 249 | 3.0 | 4.0 | 0.00 | 0.00 | 0.00 | 37 | 1011.7 |
| 20260508202322 | 75 | 243 | 4.0 | 5.0 | 0.00 | 0.00 | 0.00 | 38 | 1011.7 |
| 20260508201820 | 75 | 19 | 3.0 | 7.0 | 0.00 | 0.00 | 0.00 | 41 | 1011.7 |
| 20260508201317 | 75 | 301 | 0.0 | 0.0 | 0.00 | 0.00 | 0.00 | 42 | 1012.0 |
| 20260508200813 | 74 | 359 | 0.0 | 0.0 | 0.00 | 0.00 | 0.00 | 40 | 1012.0 |
| 20260508200309 | 74 | 291 | 1.0 | 3.0 | 0.00 | 0.00 | 0.00 | 41 | 1012.0 |
| 20260508195805 | 74 | 202 | 4.0 | 5.0 | 0.00 | 0.00 | 0.00 | 42 | 1012.4 |
| 20260508195305 | 75 | 202 | 3.0 | 4.0 | 0.00 | 0.00 | 0.00 | 41 | 1012.4 |
| 20260508194758 | 75 | 323 | 0.0 | 1.0 | 0.00 | 0.00 | 0.00 | 45 | 1012.4 |
| 20260508194255 | 75 | 313 | 0.0 | 0.0 | 0.00 | 0.00 | 0.00 | 39 | 1012.4 |
| 20260508193753 | 74 | 273 | 1.0 | 1.0 | 0.00 | 0.00 | 0.00 | 43 | 1012.7 |
| 20260508193249 | 74 | 330 | 0.0 | 0.0 | 0.00 | 0.00 | 0.00 | 40 | 1012.7 |
| 20260508192745 | 74 | 306 | 0.0 | 0.0 | 0.00 | 0.00 | 0.00 | 41 | 1013.0 |
| 20260508192243 | 74 | 214 | 4.0 | 7.0 | 0.00 | 0.00 | 0.00 | 40 | 1013.0 |
| 20260508191740 | 73 | 214 | 3.0 | 4.0 | 0.00 | 0.00 | 0.00 | 43 | 1013.0 |
| 20260508191237 | 74 | 255 | 3.0 | 4.0 | 0.00 | 0.00 | 0.00 | 44 | 1013.5 |
| 20260508190734 | 72 | 330 | 0.0 | 0.0 | 0.00 | 0.00 | 0.00 | 42 | 1013.5 |
| 20260508190230 | 73 | 249 | 3.0 | 7.0 | 0.00 | 0.00 | 0.00 | 40 | 1013.8 |
| 20260508185727 | 73 | 240 | 6.0 | 10.0 | 0.00 | 0.00 | 0.00 | 40 | 1013.8 |
| 20260508185224 | 72 | 237 | 2.0 | 4.0 | 0.00 | 0.00 | 0.00 | 42 | 1013.5 |
| 20260508184721 | 72 | 222 | 4.0 | 5.0 | 0.00 | 0.00 | 0.00 | 42 | 1013.8 |
| 20260508184218 | 72 | 222 | 4.0 | 7.0 | 0.00 | 0.00 | 0.00 | 41 | 1013.8 |
| 20260508183715 | 73 | 248 | 3.0 | 4.0 | 0.00 | 0.00 | 0.00 | 41 | 1013.8 |
| 20260508183211 | 72 | 231 | 1.0 | 1.0 | 0.00 | 0.00 | 0.00 | 45 | 1013.8 |
| 20260508182707 | 71 | 217 | 1.0 | 3.0 | 0.00 | 0.00 | 0.00 | 43 | 1013.8 |
| 20260508182204 | 72 | 250 | 3.0 | 5.0 | 0.00 | 0.00 | 0.00 | 41 | 1013.8 |
| 20260508181700 | 72 | 266 | 2.0 | 3.0 | 0.00 | 0.00 | 0.00 | 44 | 1013.8 |
| 20260508181157 | 71 | 293 | 2.0 | 4.0 | 0.00 | 0.00 | 0.00 | 42 | 1014.2 |
| 20260508180654 | 71 | 278 | 2.0 | 3.0 | 0.00 | 0.00 | 0.00 | 44 | 1014.2 |
| 20260508180151 | 71 | 219 | 2.0 | 3.0 | 0.00 | 0.00 | 0.00 | 43 | 1014.2 |
| 20260508175647 | 71 | 237 | 2.0 | 3.0 | 0.00 | 0.00 | 0.00 | 42 | 1014.2 |
| 20260508175144 | 71 | 243 | 2.0 | 4.0 | 0.00 | 0.00 | 0.00 | 43 | 1014.2 |
| 20260508174642 | 72 | 267 | 1.0 | 1.0 | 0.00 | 0.00 | 0.00 | 42 | 1014.2 |
| 20260508174138 | 72 | 255 | 1.0 | 3.0 | 0.00 | 0.00 | 0.00 | 43 | 1014.2 |
| 20260508173635 | 71 | 358 | 0.0 | 1.0 | 0.00 | 0.00 | 0.00 | 43 | 1014.2 |
| 20260508173131 | 70 | 315 | 6.0 | 10.0 | 0.00 | 0.00 | 0.00 | 43 | 1014.2 |
| 20260508172629 | 71 | 214 | 9.0 | 16.0 | 0.00 | 0.00 | 0.00 | 42 | 1014.2 |
| 20260508172125 | 71 | 133 | 1.0 | 1.0 | 0.00 | 0.00 | 0.00 | 44 | 1014.5 |
| 20260508171622 | 70 | 307 | 1.0 | 3.0 | 0.00 | 0.00 | 0.00 | 45 | 1014.5 |
| 20260508171118 | 70 | 247 | 2.0 | 3.0 | 0.00 | 0.00 | 0.00 | 44 | 1014.5 |
| 20260508170615 | 69 | 226 | 4.0 | 4.0 | 0.00 | 0.00 | 0.00 | 43 | 1014.8 |
| 20260508170113 | 70 | 202 | 4.0 | 8.0 | 0.00 | 0.00 | 0.00 | 44 | 1014.8 |
| 20260508165610 | 71 | 232 | 3.0 | 4.0 | 0.00 | 0.00 | 0.00 | 44 | 1014.8 |
| 20260508165107 | 69 | 280 | 1.0 | 3.0 | 0.00 | 0.00 | 0.00 | 46 | 1015.2 |
| 20260508164603 | 69 | 288 | 4.0 | 5.0 | 0.00 | 0.00 | 0.00 | 44 | 1015.5 |
| 20260508164100 | 70 | 241 | 3.0 | 5.0 | 0.00 | 0.00 | 0.00 | 44 | 1015.2 |
| 20260508163557 | 70 | 308 | 0.0 | 0.0 | 0.00 | 0.00 | 0.00 | 45 | 1015.5 |
| 20260508163054 | 69 | 258 | 2.0 | 3.0 | 0.00 | 0.00 | 0.00 | 47 | 1015.5 |
| 20260508162551 | 70 | 319 | 3.0 | 4.0 | 0.00 | 0.00 | 0.00 | 44 | 1015.5 |
| 20260508162048 | 69 | 285 | 0.0 | 1.0 | 0.00 | 0.00 | 0.00 | 45 | 1015.8 |